Tracking 21094 objects as of 11-Aug-2020
HD Live streaming from Space Station
objects crossing your sky now
Track the most recent launched group of Starlink satellites

CRYOCUBE

Track CRYOCUBE now!
10-day predictions
CRYOCUBE is classified as:


NORAD ID: 45258
Int'l Code: 1998-067RB
Perigee: 416.1 km
Apogee: 424.4 km
Inclination: 51.6 °
Period: 92.8 minutes
Semi major axis: 6791 km
RCS: Unknown
Launch date: November 20, 1998
Source: United States (US)
Launch site: TYURATAM MISSILE AND SPACE COMPLEX (TTMTR)

Uplink (MHz):
Downlink (MHz): 437.350/2402.500
Beacon (MHz):
Mode: 9600bps GMSK
Call sign: WJ2XOY
Status: Active

aabbcc
Your satellite tracking list
Your tracking list is empty




NASA's NSSDC Master Catalog

Two Line Element Set (TLE):
1 45258U 98067RB  20224.46928213  .00004083  00000-0  76159-4 0  9996
2 45258  51.6417  73.1308 0006102 181.0828 179.0149 15.51249142 27014
Source of the keplerian elements: AFSPC